Location: Muncie
(40.1930°N, 85.3860°W)
Time: 22:41:58
(UTC-04:00)

Hubble Space Telescope - Pass Details

Date: 20 February 2026
Orbit: 476 x 478 km, 28.5° (Epoch: 16 March)

Event Time Altitude Azimuth Distance (km) Brightness Sun altitude
Exits shadow 06:13:20 - 209° (SSW) 1,791 3.2 -14.9°
Reaches altitude 10° 06:14:05 10° 200° (SSW) 1,636 3.1 -14.8°
Maximum altitude 06:15:47 13° 173° (S) 1,477 3.1 -14.5°
Drops below altitude 10° 06:17:29 10° 146° (SE) 1,638 3.7 -14.1°
Sets 06:20:43 0° 117° (ESE) 2,517 5.5 -13.5°
